Location: El Atico
(3.0014°N, 75.4378°W)
Time: 12:21:22
(UTC+00:00)

Ariane H10+ - Pass Details

Date: 09 December 2025
Orbit: 224 x 2941 km, 6.7° (Epoch: 25 January)

Event Time Altitude Azimuth Distance (km) Brightness Sun altitude
Rises 23:25:27 0° 277° (W) 5,691 7.6 -8.3°
Reaches altitude 10° 23:30:11 10° 278° (W) 4,171 6.8 -9.4°
Maximum altitude 23:40:29 76° 3° (N) 1,065 2.6 -11.8°
Enters shadow 23:44:44 16° 87° (E) 1,847 3.4 -12.7°
